STARLINK-33580, 63711

Orbit data source: Space-Track

STARLINK-33580, 63711 is a payload satellite owned by SpaceX/Seattle (US) in LEO that was launched on Mon, 28 Apr 2025 UTC via an FALCON 9 launch vehicle from the Air Force Western Test Range (AFWTR). Payload-class satellites include a variety of spacecraft equipped with specific instruments for various scientific and technological missions. These include communications satellites like Starlink; space stations such as the ISS; scientific satellites like the Hubble; Earth observation satellites from companies like Planet Labs, Umbra, and HawkEye 360; GPS; miniature CubeSats for education and research; and military/defense satellites.

Loading next visibility...
Identifier
63711, 2025-087Q
Orbit
LEO
Country
Flag of USUS
Related business
Manufacturer
SpaceX/Seattle
Mission
Operational Commercial Communications
Bus & Motor
STARLINK V2MO, Unknown motor
Mass
575 kg wet, ~530 kg dry
Launch date (UTC)
2025-04-28 (1 year ago)
Launch vehicle
FALCON 9
Launch site
Air Force Western Test Range (AFWTR)
Object type
Payload
Rocket body
Debris
Shape & HBR
Box + 2 Pan, 17.7 m
Radar Cross Section
36.964 m², Large (>1 m²)

Expand to show TLE details & history
Last TLE update: 22 hours ago

TLE from 22 hours ago
0 STARLINK-33580
1 63711U 25087Q   26170.98075751  .00014277  00000-0  47048-3 0  9995
2 63711  53.1576 104.2266 0001082  95.3343 264.7782 15.31732585 64866
Epoch: 2026-06-19T23:32Z
TLE epoch observation values (Epoch: 2026-06-19T23:32:17.448Z)
Latitude
-0.00003°
Longitude
-157.04807°
Altitude
471.61 km
Speed
7.631 km/s
True Right ascension
06h 56m 54s
True Declination
0° 00' 00"
Sunlit
Object was in daylight at epoch
Visualization orbit readout
Latitude
Unknown
Longitude
Unknown
Altitude
Unknown
Speed
Unknown
Apparent Right ascension
Unknown
Apparent Declination
Unknown
Sunlit
N/A
Visualization observer readout
Local Sidereal Time
08:42:25
Azimuth
Unknown
Elevation
Unknown
Doppler factor
Unknown
Orbital elements
Apogee altitude
471.641 km
Perigee altitude
470.159 km
Semi-major axis
6,849.037 km
Eccentricity
0.00011
Inclination
53.1576°
RAAN
104.2266°
Arg. of periapsis
95.3343°
True anomaly
264.76585°
Mean anomaly
264.7782°
Eccentric anomaly
264.77203°
Mean motion
3.82912 °/min
Orbital period
94.02 mins
BSTAR
0.00047048
Loading maneuver chart data...
Computing Atmospheric mass density...
Loading historical data...
Loading historical data...
Loading historical data...
Loading historical data...
Loading historical data...
Loading historical data...
Loading historical data...

Documentation

Showing up to 5 results
|